Simultaneous Nadir Overpasses (SNOs) Predictions

Prediction of SNOs between GOES-15 and LANDSAT-8 Satellite Orbit:

Table of predicted SNOs for the next 14.0 days since TLE Epoch: 11/18/2023
Index Date Time (GOES-15) GOES-15 Lat,Lon LANDSAT-8 Lat,Lon Distance(km) Time Diff (sec)
1 11/18/2023 06:08:57 -0.23, 61.64 0.02, 60.56 123.23 80
2 11/20/2023 05:59:27 -0.22, 61.58 -0.63, 63.50 218.86 80
3 11/20/2023 18:20:51 0.21, 61.63 -0.50, 58.32 377.03 80
4 11/22/2023 18:08:41 0.21, 61.58 0.17, 61.26 35.34 80
5 11/24/2023 17:53:50 0.21, 61.53 0.79, 64.22 306.35 80
6 11/25/2023 06:15:06 -0.20, 61.45 0.28, 59.06 271.59 80
7 11/27/2023 06:05:35 -0.20, 61.40 -0.35, 62.01 69.81 80
8 11/29/2023 05:53:23 -0.19, 61.36 -0.94, 64.98 410.73 80
9 11/29/2023 18:14:47 0.18, 61.40 -0.17, 59.79 183.96 80
10 12/01/2023 17:59:56 0.18, 61.37 0.49, 62.74 156.51 80
